Powrót do katalogu

ZY 1

AktywnyNaukaSSO
NORAD 38038·PAYLOAD·🇨🇳 China

Wystrzelony Dec 22, 2011 z Taiyuan Satellite Launch Center

Loading…

Następne Przeloty (najbliższe 24 godziny)

TLE

ŚwieżeSource: Space-Track

Epoka: Sep 14, 2026, 15:06 UTC

1 38038U 11079A   26257.62983882  .00000250  00000-0  96455-4 0  9998
2 38038  98.3992 323.0350 0007323  47.4625 110.1613 14.38273066772068

Śledź ZY 1 w czasie rzeczywistym z AllMySat

Download on the App Store